VLG1504 LEPA-LEAL

Flight info

Callsign VLG1504
Flight time N/A
Altitude 21000
Route BAVER M603 GERVU
Aircraft A320/M-SDE3FGHIRWY/LB1

Departure

Time 2026-05-03 20:24
Airport Palma de Mallorca Airport (LEPA)

Arrival

Time N/A
Airport Alicante-Elche Miguel Hernández Airport (LEAL)
Time Latitude Longitude Altitude Speed Heading
2026-05-03 20:15 39.54507 2.73337 36 ft 2 kts 33°
2026-05-03 20:15 39.54500 2.73329 32 ft 0 kts 57°
2026-05-03 20:16 39.54502 2.73332 32 ft 3 kts 57°
2026-05-03 20:17 39.54541 2.73412 34 ft 14 kts 57°
2026-05-03 20:17 39.54596 2.73524 36 ft 16 kts 57°
2026-05-03 20:17 39.54657 2.73663 35 ft 19 kts 67°
2026-05-03 20:17 39.54724 2.73816 36 ft 21 kts 57°
2026-05-03 20:18 39.54797 2.73963 36 ft 20 kts 58°
2026-05-03 20:18 39.54886 2.73968 36 ft 15 kts 333°
2026-05-03 20:18 39.54941 2.73986 36 ft 8 kts 60°
2026-05-03 20:18 39.54990 2.73997 36 ft 9 kts 338°
2026-05-03 20:19 39.55055 2.73946 36 ft 13 kts 328°
2026-05-03 20:19 39.55146 2.73874 36 ft 20 kts 329°
2026-05-03 20:19 39.55278 2.73771 36 ft 23 kts 329°
2026-05-03 20:19 39.55423 2.73655 34 ft 26 kts 328°
2026-05-03 20:20 39.55577 2.73534 28 ft 27 kts 329°
2026-05-03 20:20 39.55665 2.73525 27 ft 6 kts 69°
2026-05-03 20:20 39.55701 2.73600 26 ft 14 kts 58°
2026-05-03 20:20 39.55759 2.73723 28 ft 18 kts 58°
2026-05-03 20:21 39.55828 2.73869 25 ft 20 kts 58°
2026-05-03 20:21 39.55907 2.74033 22 ft 23 kts 58°
2026-05-03 20:21 39.55974 2.74176 20 ft 17 kts 58°
2026-05-03 20:21 39.56057 2.74297 18 ft 16 kts 32°
2026-05-03 20:22 39.56161 2.74357 17 ft 17 kts
2026-05-03 20:22 39.56234 2.74282 17 ft 14 kts 262°
2026-05-03 20:22 39.56217 2.74229 17 ft 0 kts 237°
2026-05-03 20:23 39.56213 2.74223 17 ft 11 kts 237°
2026-05-03 20:23 39.56029 2.73838 21 ft 87 kts 238°
2026-05-03 20:23 39.55612 2.72962 30 ft 142 kts 238°
2026-05-03 20:23 39.55032 2.71739 266 ft 165 kts 239°
2026-05-03 20:24 39.54426 2.70472 941 ft 165 kts 236°
2026-05-03 20:24 39.53793 2.69207 1535 ft 174 kts 234°
2026-05-03 20:24 39.53085 2.67815 1861 ft 196 kts 234°
2026-05-03 20:24 39.52293 2.66265 2315 ft 212 kts 235°
2026-05-03 20:25 39.51482 2.64669 3162 ft 212 kts 236°
2026-05-03 20:25 39.50670 2.63067 4036 ft 213 kts 236°
2026-05-03 20:25 39.49857 2.61462 4910 ft 214 kts 236°
2026-05-03 20:25 39.49035 2.59849 5769 ft 215 kts 237°
2026-05-03 20:26 39.48209 2.58229 6634 ft 216 kts 237°
2026-05-03 20:26 39.47383 2.56611 7449 ft 216 kts 237°
2026-05-03 20:26 39.46552 2.54985 8319 ft 216 kts 237°
2026-05-03 20:26 39.45722 2.53361 9178 ft 217 kts 237°
2026-05-03 20:27 39.44874 2.51693 9797 ft 232 kts 238°
2026-05-03 20:27 39.43951 2.49850 10124 ft 255 kts 238°
2026-05-03 20:27 39.42946 2.47834 10397 ft 279 kts 238°
2026-05-03 20:27 39.41848 2.45629 10626 ft 303 kts 238°
2026-05-03 20:28 39.40663 2.43256 10819 ft 325 kts 238°
2026-05-03 20:28 39.39412 2.40760 11331 ft 334 kts 238°
2026-05-03 20:28 39.38135 2.38221 11840 ft 338 kts 238°
2026-05-03 20:28 39.36848 2.35667 11983 ft 339 kts 238°
2026-05-03 20:29 39.35560 2.33116 12012 ft 338 kts 237°
2026-05-03 20:29 39.34276 2.30573 12010 ft 338 kts 238°
2026-05-03 20:29 39.32992 2.28027 12107 ft 341 kts 238°
2026-05-03 20:29 39.31694 2.25455 12876 ft 342 kts 238°
2026-05-03 20:30 39.30390 2.22870 13627 ft 344 kts 238°
2026-05-03 20:30 39.29076 2.20269 14274 ft 347 kts 237°
2026-05-03 20:30 39.27750 2.17644 14868 ft 350 kts 237°
2026-05-03 20:30 39.26413 2.14999 15447 ft 354 kts 237°
2026-05-03 20:31 39.25063 2.12331 16021 ft 357 kts 237°
2026-05-03 20:31 39.23728 2.09699 16602 ft 360 kts 237°
2026-05-03 20:31 39.22319 2.06922 17193 ft 363 kts 237°
2026-05-03 20:31 39.20929 2.04183 17775 ft 367 kts 237°
2026-05-03 20:32 39.19520 2.01418 18356 ft 371 kts 237°
2026-05-03 20:32 39.18116 1.98668 18869 ft 374 kts 237°
2026-05-03 20:32 39.16683 1.95856 19399 ft 377 kts 238°
2026-05-03 20:32 39.15471 1.92849 19903 ft 380 kts 248°
2026-05-03 20:33 39.14674 1.89540 20434 ft 384 kts 254°
2026-05-03 20:33 39.13987 1.86252 20931 ft 387 kts 253°
2026-05-03 20:33 39.13269 1.82852 21433 ft 390 kts 253°
2026-05-03 20:33 39.12549 1.79476 21899 ft 392 kts 253°
2026-05-03 20:34 39.11821 1.76079 22372 ft 395 kts 253°
2026-05-03 20:34 39.11335 1.73817 22681 ft 397 kts 253°
2026-05-03 20:34 39.10383 1.69388 22978 ft 400 kts 253°
2026-05-03 20:34 39.09624 1.65877 23002 ft 412 kts 253°
2026-05-03 20:35 39.08844 1.62275 23008 ft 424 kts 253°
2026-05-03 20:35 39.08042 1.58571 23005 ft 434 kts 253°
2026-05-03 20:35 39.07229 1.54803 23004 ft 439 kts 253°
2026-05-03 20:35 39.06412 1.51012 23003 ft 440 kts 253°
2026-05-03 20:36 39.05592 1.47207 23000 ft 440 kts 253°
2026-05-03 20:36 39.04771 1.43420 23001 ft 440 kts 253°
2026-05-03 20:36 39.03947 1.39623 23002 ft 440 kts 253°
2026-05-03 20:36 39.03122 1.35836 23002 ft 440 kts 253°
2026-05-03 20:37 39.02294 1.32055 23002 ft 440 kts 253°
2026-05-03 20:37 39.01463 1.28270 22998 ft 439 kts 253°
2026-05-03 20:37 39.00632 1.24491 23000 ft 439 kts 253°
2026-05-03 20:37 38.99804 1.20721 22998 ft 439 kts 253°
2026-05-03 20:38 38.98976 1.16945 22995 ft 438 kts 253°
2026-05-03 20:38 38.98151 1.13180 22996 ft 438 kts 253°
2026-05-03 20:38 38.97326 1.09405 22994 ft 438 kts 253°
2026-05-03 20:38 38.96499 1.05643 22994 ft 438 kts 253°
2026-05-03 20:39 38.95666 1.01884 22991 ft 437 kts 253°
2026-05-03 20:39 38.94831 0.98130 22991 ft 437 kts 253°
2026-05-03 20:39 38.94005 0.94426 22992 ft 437 kts 253°
2026-05-03 20:39 38.93167 0.90674 22988 ft 437 kts 253°
2026-05-03 20:40 38.92329 0.86927 22990 ft 437 kts 253°
2026-05-03 20:40 38.91494 0.83187 22991 ft 436 kts 253°
2026-05-03 20:40 38.90658 0.79440 22990 ft 436 kts 253°
2026-05-03 20:40 38.89821 0.75696 22991 ft 436 kts 253°
2026-05-03 20:41 38.88983 0.71956 22989 ft 436 kts 253°
2026-05-03 20:41 38.88145 0.68222 22992 ft 436 kts 252°
2026-05-03 20:41 38.87450 0.65752 22987 ft 435 kts 248°
2026-05-03 20:41 38.86325 0.62156 22991 ft 435 kts 248°
2026-05-03 20:42 38.85198 0.58556 22991 ft 435 kts 248°
2026-05-03 20:42 38.84070 0.54959 22992 ft 435 kts 248°
2026-05-03 20:42 38.82942 0.51362 22987 ft 435 kts 248°
2026-05-03 20:42 38.81875 0.47735 22986 ft 435 kts 252°
2026-05-03 20:43 38.81081 0.43994 22983 ft 435 kts 254°
2026-05-03 20:43 38.80309 0.40299 22986 ft 435 kts 254°
2026-05-03 20:43 38.79524 0.36561 22986 ft 435 kts 254°
2026-05-03 20:43 38.78736 0.32817 22984 ft 435 kts 254°
2026-05-03 20:44 38.77948 0.29078 22986 ft 434 kts 253°
2026-05-03 20:44 38.77172 0.25397 22828 ft 424 kts 253°
2026-05-03 20:44 38.76406 0.21770 22560 ft 420 kts 253°
2026-05-03 20:44 38.75647 0.18179 22292 ft 417 kts 254°
2026-05-03 20:45 38.74887 0.14593 21696 ft 414 kts 253°
2026-05-03 20:45 38.74133 0.11062 21064 ft 410 kts 253°
2026-05-03 20:45 38.73382 0.07556 20437 ft 406 kts 253°
2026-05-03 20:45 38.72640 0.04083 19826 ft 402 kts 253°
2026-05-03 20:46 38.71904 0.00644 19225 ft 399 kts 253°
2026-05-03 20:46 38.71173 -0.02775 18638 ft 396 kts 253°
2026-05-03 20:46 38.70450 -0.06160 18021 ft 393 kts 253°
2026-05-03 20:46 38.69731 -0.09514 17355 ft 388 kts 253°
2026-05-03 20:47 38.69016 -0.12832 16718 ft 385 kts 253°
2026-05-03 20:47 38.68308 -0.16114 16090 ft 381 kts 253°
2026-05-03 20:47 38.67605 -0.19378 15468 ft 378 kts 253°
2026-05-03 20:47 38.66908 -0.22609 14861 ft 375 kts 253°
2026-05-03 20:48 38.66216 -0.25807 14258 ft 371 kts 253°
2026-05-03 20:48 38.65532 -0.28975 13660 ft 368 kts 253°
2026-05-03 20:48 38.64852 -0.32120 13008 ft 366 kts 253°
2026-05-03 20:48 38.64172 -0.35255 12379 ft 365 kts 253°
2026-05-03 20:49 38.63496 -0.38365 11749 ft 361 kts 253°
2026-05-03 20:49 38.62826 -0.41440 11135 ft 356 kts 253°
2026-05-03 20:49 38.62166 -0.44460 10533 ft 351 kts 253°
2026-05-03 20:49 38.61512 -0.47449 9939 ft 347 kts 253°
2026-05-03 20:50 38.60866 -0.50401 9423 ft 340 kts 253°
2026-05-03 20:50 38.60246 -0.53244 9291 ft 324 kts 253°
2026-05-03 20:50 38.59654 -0.55956 9158 ft 310 kts 253°
2026-05-03 20:50 38.59033 -0.58533 9029 ft 297 kts 251°
2026-05-03 20:51 38.58410 -0.61002 8905 ft 287 kts 251°
2026-05-03 20:51 38.57870 -0.63129 8778 ft 277 kts 251°
2026-05-03 20:51 38.57273 -0.65462 8618 ft 269 kts 251°
2026-05-03 20:51 38.56693 -0.67722 8312 ft 267 kts 251°
2026-05-03 20:52 38.55839 -0.69805 7960 ft 266 kts 234°
2026-05-03 20:52 38.54684 -0.71655 7625 ft 267 kts 232°
2026-05-03 20:52 38.53495 -0.73477 7312 ft 266 kts 231°
2026-05-03 20:52 38.52329 -0.75248 7145 ft 260 kts 231°
2026-05-03 20:53 38.51152 -0.77026 6853 ft 260 kts 231°
2026-05-03 20:53 38.49992 -0.78772 6498 ft 263 kts 231°
2026-05-03 20:53 38.48805 -0.80554 6120 ft 264 kts 231°
2026-05-03 20:53 38.47614 -0.82346 5732 ft 265 kts 231°
2026-05-03 20:54 38.46431 -0.84142 5504 ft 261 kts 231°
2026-05-03 20:54 38.44218 -0.87503 5500 ft 235 kts 231°
2026-05-03 20:54 38.43168 -0.89092 5500 ft 233 kts 231°
2026-05-03 20:55 38.42125 -0.90657 5311 ft 231 kts 228°
2026-05-03 20:55 38.40789 -0.91774 5012 ft 234 kts 197°
2026-05-03 20:55 38.39172 -0.92017 4678 ft 235 kts 183°
2026-05-03 20:55 38.37541 -0.92036 4420 ft 232 kts 181°
2026-05-03 20:56 38.35964 -0.91990 4304 ft 223 kts 172°
2026-05-03 20:56 38.34569 -0.91237 4158 ft 216 kts 147°
2026-05-03 20:56 38.33476 -0.89951 3917 ft 214 kts 128°
2026-05-03 20:56 38.32762 -0.88300 3688 ft 213 kts 109°
2026-05-03 20:57 38.32439 -0.86479 3466 ft 211 kts 101°
2026-05-03 20:57 38.32192 -0.84638 3304 ft 211 kts 101°
2026-05-03 20:57 38.31944 -0.82805 3303 ft 211 kts 101°
2026-05-03 20:57 38.31692 -0.80957 3302 ft 212 kts 101°
2026-05-03 20:58 38.31438 -0.79108 3304 ft 212 kts 101°
2026-05-03 20:58 38.31184 -0.77255 3186 ft 212 kts 101°
2026-05-03 20:58 38.30931 -0.75414 2939 ft 210 kts 101°
2026-05-03 20:58 38.30682 -0.73610 2695 ft 203 kts 101°
2026-05-03 20:59 38.30443 -0.71872 2421 ft 195 kts 101°
2026-05-03 20:59 38.30213 -0.70204 2160 ft 188 kts 101°
2026-05-03 20:59 38.29991 -0.68598 1925 ft 181 kts 101°
2026-05-03 20:59 38.29781 -0.67077 1686 ft 167 kts 101°
2026-05-03 21:00 38.29589 -0.65693 1480 ft 149 kts 100°
2026-05-03 21:00 38.29472 -0.64845 1342 ft 144 kts 100°
2026-05-03 21:00 38.29245 -0.63208 1091 ft 138 kts 99°
2026-05-03 21:00 38.29079 -0.62017 902 ft 136 kts 99°
2026-05-03 21:01 38.28915 -0.60836 726 ft 135 kts 100°